Simultaneous Nadir Overpasses (SNOs) Predictions

Prediction of SNOs between NOAA-19 and NPP Satellite Orbit:

Table of predicted SNOs for the next 14.0 days since TLE Epoch: 12/1/2017
Index Date (NOAA-19) Time (NOAA-19) Lat,Lon (NOAA-19) SZA (NOAA-19 ) Date (NPP) Time (NPP) Lat,Lon (NPP) SZA (NPP ) Distance(km) Time Diff (sec)
1 12/14/2017 16:06:45 80.71,-109.47 106.66 12/14/2017 16:07:50 80.71,-109.47 106.63 0.72 65
2 12/14/2017 16:57:43 -80.71, 57.82 73.34 12/14/2017 16:58:35 -80.70, 57.90 73.38 1.93 52
3 12/14/2017 17:48:46 80.72,-134.85 106.66 12/14/2017 17:49:20 80.71,-134.89 106.64 1.20 34
4 12/14/2017 18:39:44 -80.72, 32.45 73.35 12/14/2017 18:40:05 -80.71, 32.49 73.37 1.59 21
5 12/14/2017 19:30:47 80.72,-160.22 106.65 12/14/2017 19:30:50 80.71,-160.31 106.65 1.94 3
6 12/14/2017 20:21:45 -80.72, 7.09 73.36 12/14/2017 20:21:35 -80.71, 7.07 73.36 1.74 10
7 12/14/2017 21:12:48 80.73, 174.41 106.64 12/14/2017 21:12:20 80.71, 174.27 106.66 2.73 28
8 12/14/2017 22:03:47 -80.72, -18.64 73.33 12/14/2017 22:03:06 -80.73, -18.70 73.30 2.01 41
9 12/14/2017 22:54:50 80.72, 148.67 106.67 12/14/2017 22:53:50 80.72, 148.85 106.68 3.25 60




NCC Satellite Simultaneous Nadir Overpasses (SNOs) Prediction Service
